Regional Weather Roundup
Issued by NWS

Home | Current Version | Previous Version | Text Only | Print | Product List | Glossary On
Versions: 1 2 3 4 5 6 7 8 9 10 11 12 13 14 15 16 17 18 19 20 21 22 23 24 25 26 27 28 29 30 31 32 33 34 35 36 37 38 39 40 41 42 43 44 45 46 47 48 49 50
000
ASUS43 KDTX 311701
RWRMI
MICHIGAN HOURLY REGIONAL WEATHER ROUNDUP
NATIONAL WEATHER SERVICE DETROIT/PONTIAC MI
100 PM EDT THU JUL 31 2014

NOTE: "FAIR" INDICATES FEW OR NO CLOUDS BELOW 12,000 FEET WITH NO
SIGNIFICANT WEATHER AND/OR OBSTRUCTION TO VISIBILITY.

MIZ047>049-052>055-059>063-066>070-074>076-081>083-311800-
SOUTHEAST LOWER MICHIGAN

CITY           SKY/WX    TMP DP  RH WIND       PRES   REMARKS
ADRIAN         MOSUNNY   77  53  43 W10G18    30.06S
ALMA           PTSUNNY   74  58  55 W10G18    30.01S
ANN ARBOR      PTSUNNY   76  52  43 W15       30.05R
BAD AXE        MOSUNNY   71  59  66 SW16      29.99S
CARO           MOSUNNY   74  60  62 W13       30.00S
DETROIT CITY   PTSUNNY   77  53  43 SW12G20   30.03S
DETROIT        PTSUNNY   75  56  51 SW10G20   30.04F
FLINT          PTSUNNY   74  57  55 SW13G20   30.02S
GROSSE ILE     PTSUNNY   72  61  68 S10       30.03F
HILLSDALE      MOSUNNY   75  54  47 W13       30.06S
HOWELL         MOSUNNY   75  56  52 SW9G17    30.03F

CITY           SKY/WX    TMP DP  RH WIND       PRES   REMARKS
JACKSON        PTSUNNY   75  57  53 SW7       30.04F
LAMBERTVILLE   MOSUNNY   77  52  41 SW10G17   30.06S
LANSING        MOSUNNY   75  56  51 SW14      30.03S
LAPEER         PTSUNNY   74  55  51 SW10G17   30.02S
MASON          PTSUNNY   74  57  55 SW8G20    30.04S
MONROE         MOSUNNY   75  55  50 W13G18    30.03F
PONTIAC        PTSUNNY   74  56  53 W17       30.03S
PORT HOPE        N/A     72  56  57 VRB7      29.97R
PORT HURON     MOSUNNY   73  55  53 SW8       30.02F
TRI CITIES     MOSUNNY   74  59  59 SW9       30.01R
TROY           PTSUNNY   74  53  47 W13G21    30.04S
SAGINAW HB     MOSUNNY   73  59  60 W9        30.00R
$$
MIZ043>046-050>051-056>058-064>065-071>073-077>080-311800-
SOUTHWEST LOWER MICHIGAN

CITY           SKY/WX    TMP DP  RH WIND       PRES   REMARKS
BATTLE CREEK   PTSUNNY   76  59  55 W14       30.04S
BENTON HARBOR  SUNNY     74  57  55 W16       30.05R
BIG RAPIDS     PTSUNNY   74  56  53 W10       30.01S
COLDWATER      MOSUNNY   77  57  50 SW12G18   30.05S
FREMONT        PTSUNNY   76  55  48 W8        30.00F
HOLLAND        SUNNY     72  61  68 W9        30.04S
GRAND RAPIDS   MOSUNNY   77  59  53 SW16      30.02S
IONIA          FAIR      75  58  55 W14       30.01F
KALAMAZOO      MOSUNNY   78  58  49 W14       30.04S
LUDINGTON      SUNNY     69  59  70 W6        30.01S
MARSHALL       CLOUDY    75  58  55 W12G18    30.04S
MOUNT PLEASANT MOSUNNY   75  57  53 SW10      30.00S
MUSKEGON       MOSUNNY   71  59  65 SW6       30.03R
SOUTH HAVEN    SUNNY     72  62  69 W10G16    30.05S
$$
MIZ016>042-311800-
NORTHERN LOWER MICHIGAN

CITY           SKY/WX    TMP DP  RH WIND       PRES   REMARKS
ALPENA         SUNNY     72  51  47 W8        29.95F
BEAVER ISLAND  SUNNY     67  60  78 W15       29.95S
BELLAIRE       SUNNY     73  51  45 SW6       29.96S
CADILLAC       SUNNY     73  52  46 W9        29.99S
CHARLEVOIX     SUNNY     73  51  45 W9        29.98S
FRANKFORT      SUNNY     68  58  69 W9        30.00R
GAYLORD        SUNNY     71  49  45 W9        29.97F
GRAYLING       SUNNY     74  49  40 W7        29.99S
HARBOR SPRINGS SUNNY     71  55  58 W8        29.96R
HOUGHTON LAKE  SUNNY     72  51  47 W7        29.99S
MANISTEE       SUNNY     70  57  64 W6        30.00S
OSCODA         MOSUNNY   74  52  45 W9G16     29.95F
PELLSTON       SUNNY     74  51  44 W12G21    29.94F
ROGERS CITY    MOSUNNY   72  56  57 W7        29.95F
TRAVERSE CITY  MOSUNNY   76  49  38 W8        29.95F
$$
MIZ007>008-015-311800-
EASTERN UPPER MICHIGAN

CITY           SKY/WX    TMP DP  RH WIND       PRES   REMARKS
KINROSS        CLOUDY    70  55  60 SW7       29.91F
MACKINAC ISLAN SUNNY     67  56  69 W10G21    29.93S
NEWBERRY       CLOUDY    68  55  64 SW7       29.92S
S. S. MARIE    PTSUNNY   69  54  58 W8        29.91S
MUNISING         N/A     67  56  67 N7        29.93S
$$
MIZ004>006-011>014-085-311800-
CENTRAL UPPER MICHIGAN

CITY           SKY/WX    TMP DP  RH WIND       PRES   REMARKS
MANISTIQUE     PTSUNNY   66  60  80 S12       29.93
ESCANABA       PTSUNNY   70  57  64 S13       29.93S
MENOMINEE      SUNNY     73  57  56 SW5       29.95S
SAWYER-GWINN   PTSUNNY   72  55  56 NE8       29.94S
$$
MIZ001>003-009>011-084-311800-
WESTERN UPPER MICHIGAN

CITY           SKY/WX    TMP DP  RH WIND       PRES   REMARKS
IRON MOUNTAIN  MOSUNNY   75  52  44 NW10G20   29.96R
HOUGHTON       SUNNY     69  53  56 W12       29.94S
COPPER HARBOR    N/A     66  58  75 N14       29.92S
$$

ABBREVIATIONS USED IN REMARKS
   TC - TEMPERATURE IN CELSIUS
  WCI - WIND CHILL INDEX
   HX - HEAT INDEX
  VSB - VISIBILITY




USA.gov is the U.S. government's official web portal to all federal, state and local government web resources and services.